Regional Weather Roundup
Issued by NWS

Home | Current Version | Previous Version | Text Only | Print | Product List | Glossary On
Versions: 1 2 3 4 5 6 7 8 9 10 11 12 13 14 15 16 17 18 19 20 21 22 23 24 25 26 27 28 29 30 31 32 33 34 35 36 37 38 39 40 41 42 43 44 45 46 47 48 49 50
000
ASUS43 KBIS 280010
RWRND

NORTH DAKOTA REGIONAL WEATHER ROUNDUP
NATIONAL WEATHER SERVICE BISMARCK ND
700 PM CDT WED MAY 27 2015

NOTE: "FAIR" INDICATES FEW OR NO CLOUDS BELOW 12,000 FEET WITH NO
SIGNIFICANT WEATHER AND/OR OBSTRUCTIONS TO VISIBILITY.


NDZ001>003-009>011-017-280100-
NORTHWEST NORTH DAKOTA

CITY           SKY/WX    TMP DP  RH WIND       PRES   REMARKS
WILLISTON      CLOUDY    62  54  74 S8        29.91F
6HR MIN TEMP:  60; 6HR MAX TEMP:  83; 6HR PCP:  0.38;

MINOT          CLOUDY    73  49  42 E14       29.90F
MINOT AFB      CLOUDY    74  51  44 E13       29.89F
$$

NDZ018>021-031>035-040>046-280100-
SOUTHWEST NORTH DAKOTA

CITY           SKY/WX    TMP DP  RH WIND       PRES   REMARKS
BISMARCK       PTSUNNY   77  48  35 S12       29.90F
6HR MIN TEMP:  77; 6HR MAX TEMP:  82;

DICKINSON      LGT RAIN  57  55  93 NE14      29.91S
GARRISON         N/A     76  45  33 SE7       29.88F
6HR MIN TEMP:  75; 6HR MAX TEMP:  83;

HETTINGER ARPT TSTM      58  53  84 NW14G24   29.95R VSB 3/4
$$

NDZ004>008-012>016-024-026-027-054-280100-
NORTHEAST NORTH DAKOTA

CITY           SKY/WX    TMP DP  RH WIND       PRES   REMARKS
GRAND FORKS    PTSUNNY   76  49  38 N3        29.95S
GRND FRKS AFB  PTSUNNY   74  50  41 N2        29.97S
DEVILS LAKE    CLOUDY    72  50  46 S10       29.98R
$$

NDZ022-023-025-028>030-036>039-047>053-280100-
SOUTHEAST NORTH DAKOTA

CITY           SKY/WX    TMP DP  RH WIND       PRES   REMARKS
FARGO          MOSUNNY   80  54  40 NE3       29.94S
6HR MIN TEMP:  77; 6HR MAX TEMP:  83;

JAMESTOWN      CLOUDY    75  53  46 NE8       29.93S
$$




USA.gov is the U.S. government's official web portal to all federal, state and local government web resources and services.